﻿測定場所 (Monitoring sites),日付 (Measurement date),時間 (Measurement time),線量率 最大値 (max) μGy/h,線量率 最小値 (min) μGy/h,線量率 平均値 (average) μGy/h,
足立 (Adachi),2022-12-18,23:01～24:00,0.0300,0.0270,0.0286,
足立 (Adachi),2022-12-18,22:01～23:00,0.0308,0.0259,0.0285,
足立 (Adachi),2022-12-18,21:01～22:00,0.0305,0.0268,0.0287,
足立 (Adachi),2022-12-18,20:01～21:00,0.0310,0.0267,0.0285,
足立 (Adachi),2022-12-18,19:01～20:00,0.0312,0.0268,0.0287,
足立 (Adachi),2022-12-18,18:01～19:00,0.0304,0.0269,0.0287,
足立 (Adachi),2022-12-18,17:01～18:00,0.0306,0.0261,0.0286,
足立 (Adachi),2022-12-18,16:01～17:00,0.0304,0.0268,0.0285,
足立 (Adachi),2022-12-18,15:01～16:00,0.0311,0.0270,0.0288,
足立 (Adachi),2022-12-18,14:01～15:00,0.0309,0.0268,0.0288,
足立 (Adachi),2022-12-18,13:01～14:00,0.0314,0.0277,0.0292,
足立 (Adachi),2022-12-18,12:01～13:00,0.0309,0.0273,0.0294,
足立 (Adachi),2022-12-18,11:01～12:00,0.0315,0.0276,0.0295,
足立 (Adachi),2022-12-18,10:01～11:00,0.0326,0.0281,0.0300,
足立 (Adachi),2022-12-18,09:01～10:00,0.0318,0.0274,0.0298,
足立 (Adachi),2022-12-18,08:01～09:00,0.0326,0.0280,0.0297,
足立 (Adachi),2022-12-18,07:01～08:00,0.0321,0.0279,0.0297,
足立 (Adachi),2022-12-18,06:01～07:00,0.0319,0.0280,0.0295,
足立 (Adachi),2022-12-18,05:01～06:00,0.0322,0.0276,0.0295,
足立 (Adachi),2022-12-18,04:01～05:00,0.0323,0.0272,0.0300,
足立 (Adachi),2022-12-18,03:01～04:00,0.0371,0.0295,0.0333,
足立 (Adachi),2022-12-18,02:01～03:00,0.0494,0.0356,0.0421,
足立 (Adachi),2022-12-18,01:01～02:00,0.0516,0.0425,0.0467,
足立 (Adachi),2022-12-18,00:01～01:00,0.0495,0.0405,0.0444,
足立 (Adachi),2022-12-17,23:01～24:00,0.0472,0.0406,0.0442,
足立 (Adachi),2022-12-17,22:01～23:00,0.0478,0.0400,0.0437,
足立 (Adachi),2022-12-17,21:01～22:00,0.0466,0.0378,0.0422,
足立 (Adachi),2022-12-17,20:01～21:00,0.0404,0.0294,0.0342,
足立 (Adachi),2022-12-17,19:01～20:00,0.0317,0.0283,0.0301,
足立 (Adachi),2022-12-17,18:01～19:00,0.0327,0.0277,0.0298,
足立 (Adachi),2022-12-17,17:01～18:00,0.0325,0.0277,0.0296,
足立 (Adachi),2022-12-17,16:01～17:00,0.0312,0.0269,0.0292,
足立 (Adachi),2022-12-17,15:01～16:00,0.0315,0.0272,0.0293,
足立 (Adachi),2022-12-17,14:01～15:00,0.0312,0.0275,0.0296,
足立 (Adachi),2022-12-17,13:01～14:00,0.0323,0.0281,0.0299,
足立 (Adachi),2022-12-17,12:01～13:00,0.0322,0.0279,0.0298,
足立 (Adachi),2022-12-17,11:01～12:00,0.0314,0.0282,0.0297,
足立 (Adachi),2022-12-17,10:01～11:00,0.0314,0.0277,0.0296,
足立 (Adachi),2022-12-17,09:01～10:00,0.0321,0.0279,0.0296,
足立 (Adachi),2022-12-17,08:01～09:00,0.0326,0.0286,0.0301,
足立 (Adachi),2022-12-17,07:01～08:00,0.0314,0.0270,0.0296,
足立 (Adachi),2022-12-17,06:01～07:00,0.0311,0.0276,0.0295,
足立 (Adachi),2022-12-17,05:01～06:00,0.0313,0.0273,0.0295,
足立 (Adachi),2022-12-17,04:01～05:00,0.0312,0.0278,0.0296,
足立 (Adachi),2022-12-17,03:01～04:00,0.0315,0.0280,0.0295,
足立 (Adachi),2022-12-17,02:01～03:00,0.0314,0.0275,0.0296,
足立 (Adachi),2022-12-17,01:01～02:00,0.0308,0.0274,0.0290,
足立 (Adachi),2022-12-17,00:01～01:00,0.0315,0.0278,0.0293,
足立 (Adachi),2022-12-16,23:01～24:00,0.0309,0.0265,0.0290,
足立 (Adachi),2022-12-16,22:01～23:00,0.0315,0.0270,0.0291,
足立 (Adachi),2022-12-16,21:01～22:00,0.0313,0.0282,0.0294,
足立 (Adachi),2022-12-16,20:01～21:00,0.0313,0.0275,0.0292,
足立 (Adachi),2022-12-16,19:01～20:00,0.0312,0.0275,0.0288,
足立 (Adachi),2022-12-16,18:01～19:00,0.0309,0.0269,0.0291,
足立 (Adachi),2022-12-16,17:01～18:00,0.0307,0.0276,0.0289,
足立 (Adachi),2022-12-16,16:01～17:00,0.0303,0.0272,0.0289,
足立 (Adachi),2022-12-16,15:01～16:00,0.0314,0.0275,0.0293,
足立 (Adachi),2022-12-16,14:01～15:00,0.0309,0.0275,0.0292,
足立 (Adachi),2022-12-16,13:01～14:00,0.0323,0.0272,0.0291,
足立 (Adachi),2022-12-16,12:01～13:00,0.0312,0.0277,0.0294,
足立 (Adachi),2022-12-16,11:01～12:00,0.0332,0.0283,0.0298,
足立 (Adachi),2022-12-16,10:01～11:00,0.0318,0.0280,0.0302,
足立 (Adachi),2022-12-16,09:01～10:00,0.0319,0.0279,0.0303,
足立 (Adachi),2022-12-16,08:01～09:00,0.0322,0.0285,0.0303,
足立 (Adachi),2022-12-16,07:01～08:00,0.0330,0.0277,0.0296,
足立 (Adachi),2022-12-16,06:01～07:00,0.0316,0.0274,0.0292,
足立 (Adachi),2022-12-16,05:01～06:00,0.0309,0.0276,0.0293,
足立 (Adachi),2022-12-16,04:01～05:00,0.0313,0.0275,0.0294,
足立 (Adachi),2022-12-16,03:01～04:00,0.0310,0.0269,0.0288,
足立 (Adachi),2022-12-16,02:01～03:00,0.0304,0.0273,0.0289,
足立 (Adachi),2022-12-16,01:01～02:00,0.0306,0.0265,0.0286,
足立 (Adachi),2022-12-16,00:01～01:00,0.0310,0.0264,0.0288,
足立 (Adachi),2022-12-15,23:01～24:00,0.0301,0.0263,0.0286,
足立 (Adachi),2022-12-15,22:01～23:00,0.0314,0.0265,0.0288,
足立 (Adachi),2022-12-15,21:01～22:00,0.0314,0.0265,0.0285,
足立 (Adachi),2022-12-15,20:01～21:00,0.0309,0.0267,0.0286,
足立 (Adachi),2022-12-15,19:01～20:00,0.0307,0.0271,0.0287,
足立 (Adachi),2022-12-15,18:01～19:00,0.0311,0.0273,0.0289,
足立 (Adachi),2022-12-15,17:01～18:00,0.0311,0.0269,0.0286,
足立 (Adachi),2022-12-15,16:01～17:00,0.0310,0.0271,0.0287,
足立 (Adachi),2022-12-15,15:01～16:00,0.0355,0.0265,0.0289,
足立 (Adachi),2022-12-15,14:01～15:00,0.0304,0.0273,0.0285,
足立 (Adachi),2022-12-15,13:01～14:00,0.0312,0.0267,0.0288,
足立 (Adachi),2022-12-15,12:01～13:00,0.0307,0.0273,0.0289,
足立 (Adachi),2022-12-15,11:01～12:00,0.0314,0.0275,0.0293,
足立 (Adachi),2022-12-15,10:01～11:00,0.0312,0.0274,0.0293,
足立 (Adachi),2022-12-15,09:01～10:00,0.0316,0.0267,0.0295,
足立 (Adachi),2022-12-15,08:01～09:00,0.0319,0.0275,0.0295,
足立 (Adachi),2022-12-15,07:01～08:00,0.0312,0.0275,0.0293,
足立 (Adachi),2022-12-15,06:01～07:00,0.0313,0.0268,0.0292,
足立 (Adachi),2022-12-15,05:01～06:00,0.0307,0.0268,0.0287,
足立 (Adachi),2022-12-15,04:01～05:00,0.0308,0.0258,0.0289,
足立 (Adachi),2022-12-15,03:01～04:00,0.0310,0.0270,0.0289,
足立 (Adachi),2022-12-15,02:01～03:00,0.0310,0.0272,0.0289,
足立 (Adachi),2022-12-15,01:01～02:00,0.0307,0.0272,0.0289,
足立 (Adachi),2022-12-15,00:01～01:00,0.0305,0.0270,0.0287,
足立 (Adachi),2022-12-14,23:01～24:00,0.0305,0.0267,0.0288,
足立 (Adachi),2022-12-14,22:01～23:00,0.0307,0.0269,0.0287,
足立 (Adachi),2022-12-14,21:01～22:00,0.0319,0.0271,0.0289,
足立 (Adachi),2022-12-14,20:01～21:00,0.0307,0.0270,0.0287,
足立 (Adachi),2022-12-14,19:01～20:00,0.0307,0.0267,0.0286,
足立 (Adachi),2022-12-14,18:01～19:00,0.0307,0.0266,0.0289,
足立 (Adachi),2022-12-14,17:01～18:00,0.0318,0.0267,0.0287,
足立 (Adachi),2022-12-14,16:01～17:00,0.0307,0.0275,0.0287,
足立 (Adachi),2022-12-14,15:01～16:00,0.0306,0.0266,0.0286,
足立 (Adachi),2022-12-14,14:01～15:00,0.0304,0.0273,0.0288,
足立 (Adachi),2022-12-14,13:01～14:00,0.0310,0.0273,0.0290,
足立 (Adachi),2022-12-14,12:01～13:00,0.0311,0.0274,0.0292,
足立 (Adachi),2022-12-14,11:01～12:00,0.0321,0.0275,0.0299,
足立 (Adachi),2022-12-14,10:01～11:00,0.0333,0.0286,0.0304,
足立 (Adachi),2022-12-14,09:01～10:00,0.0327,0.0280,0.0303,
足立 (Adachi),2022-12-14,08:01～09:00,0.0321,0.0273,0.0294,
足立 (Adachi),2022-12-14,07:01～08:00,0.0309,0.0276,0.0293,
足立 (Adachi),2022-12-14,06:01～07:00,0.0308,0.0269,0.0290,
足立 (Adachi),2022-12-14,05:01～06:00,0.0320,0.0265,0.0293,
足立 (Adachi),2022-12-14,04:01～05:00,0.0312,0.0274,0.0288,
足立 (Adachi),2022-12-14,03:01～04:00,0.0309,0.0275,0.0293,
足立 (Adachi),2022-12-14,02:01～03:00,0.0312,0.0274,0.0290,
足立 (Adachi),2022-12-14,01:01～02:00,0.0310,0.0271,0.0291,
足立 (Adachi),2022-12-14,00:01～01:00,0.0314,0.0280,0.0295,
足立 (Adachi),2022-12-13,23:01～24:00,0.0319,0.0279,0.0295,
足立 (Adachi),2022-12-13,22:01～23:00,0.0318,0.0276,0.0293,
足立 (Adachi),2022-12-13,21:01～22:00,0.0310,0.0271,0.0293,
足立 (Adachi),2022-12-13,20:01～21:00,0.0302,0.0268,0.0288,
足立 (Adachi),2022-12-13,19:01～20:00,0.0306,0.0269,0.0287,
足立 (Adachi),2022-12-13,18:01～19:00,0.0309,0.0270,0.0285,
足立 (Adachi),2022-12-13,17:01～18:00,0.0310,0.0271,0.0286,
足立 (Adachi),2022-12-13,16:01～17:00,0.0308,0.0267,0.0288,
足立 (Adachi),2022-12-13,15:01～16:00,0.0321,0.0276,0.0297,
足立 (Adachi),2022-12-13,14:01～15:00,0.0367,0.0292,0.0326,
足立 (Adachi),2022-12-13,13:01～14:00,0.0372,0.0304,0.0337,
足立 (Adachi),2022-12-13,12:01～13:00,0.0310,0.0271,0.0291,
足立 (Adachi),2022-12-13,11:01～12:00,0.0327,0.0275,0.0296,
足立 (Adachi),2022-12-13,10:01～11:00,0.0351,0.0281,0.0310,
足立 (Adachi),2022-12-13,09:01～10:00,0.0380,0.0308,0.0344,
足立 (Adachi),2022-12-13,08:01～09:00,0.0379,0.0324,0.0349,
足立 (Adachi),2022-12-13,07:01～08:00,0.0359,0.0297,0.0332,
足立 (Adachi),2022-12-13,06:01～07:00,0.0333,0.0300,0.0316,
足立 (Adachi),2022-12-13,05:01～06:00,0.0329,0.0285,0.0306,
足立 (Adachi),2022-12-13,04:01～05:00,0.0315,0.0268,0.0296,
足立 (Adachi),2022-12-13,03:01～04:00,0.0311,0.0269,0.0295,
足立 (Adachi),2022-12-13,02:01～03:00,0.0313,0.0278,0.0294,
足立 (Adachi),2022-12-13,01:01～02:00,0.0308,0.0271,0.0292,
足立 (Adachi),2022-12-13,00:01～01:00,0.0306,0.0273,0.0290,
足立 (Adachi),2022-12-12,23:01～24:00,0.0304,0.0274,0.0290,
足立 (Adachi),2022-12-12,22:01～23:00,0.0311,0.0264,0.0289,
足立 (Adachi),2022-12-12,21:01～22:00,0.0306,0.0267,0.0287,
足立 (Adachi),2022-12-12,20:01～21:00,0.0307,0.0258,0.0286,
足立 (Adachi),2022-12-12,19:01～20:00,0.0301,0.0269,0.0285,
足立 (Adachi),2022-12-12,18:01～19:00,0.0299,0.0250,0.0280,
足立 (Adachi),2022-12-12,17:01～18:00,0.0300,0.0261,0.0279,
足立 (Adachi),2022-12-12,16:01～17:00,0.0299,0.0259,0.0282,
足立 (Adachi),2022-12-12,15:01～16:00,0.0307,0.0265,0.0283,
足立 (Adachi),2022-12-12,14:01～15:00,0.0308,0.0268,0.0284,
足立 (Adachi),2022-12-12,13:01～14:00,0.0308,0.0263,0.0288,
足立 (Adachi),2022-12-12,12:01～13:00,0.0333,0.0269,0.0287,
足立 (Adachi),2022-12-12,11:01～12:00,0.0310,0.0267,0.0284,
足立 (Adachi),2022-12-12,10:01～11:00,0.0308,0.0262,0.0286,
足立 (Adachi),2022-12-12,09:01～10:00,0.0304,0.0270,0.0287,
足立 (Adachi),2022-12-12,08:01～09:00,0.0303,0.0269,0.0288,
足立 (Adachi),2022-12-12,07:01～08:00,0.0307,0.0267,0.0289,
足立 (Adachi),2022-12-12,06:01～07:00,0.0317,0.0265,0.0287,
足立 (Adachi),2022-12-12,05:01～06:00,0.0300,0.0269,0.0287,
足立 (Adachi),2022-12-12,04:01～05:00,0.0314,0.0277,0.0294,
足立 (Adachi),2022-12-12,03:01～04:00,0.0309,0.0277,0.0291,
足立 (Adachi),2022-12-12,02:01～03:00,0.0309,0.0273,0.0294,
足立 (Adachi),2022-12-12,01:01～02:00,0.0313,0.0273,0.0294,
足立 (Adachi),2022-12-12,00:01～01:00,0.0317,0.0284,0.0300,
